TimeCST,TemperatureF,Dew PointF,Humidity,Sea Level PressureIn,VisibilityMPH,Wind Direction,Wind SpeedMPH,Gust SpeedMPH,PrecipitationIn,Events,Conditions,WindDirDegrees,DateUTC
12:15 AM,68.0,59.0,73,30.14,9.0,NE,6.9,-,N/A,,Mostly Cloudy,50,2012-11-25 06:15:00
12:35 AM,68.0,59.0,73,30.14,10.0,NE,8.1,-,N/A,,Overcast,40,2012-11-25 06:35:00
12:55 AM,69.8,59.0,68,30.13,10.0,NE,9.2,-,N/A,,Overcast,40,2012-11-25 06:55:00
1:15 AM,69.8,59.0,68,30.13,10.0,NE,9.2,-,N/A,,Overcast,50,2012-11-25 07:15:00
1:35 AM,69.8,59.0,68,30.12,9.0,NE,6.9,-,N/A,,Overcast,50,2012-11-25 07:35:00
1:55 AM,69.8,59.0,68,30.12,9.0,ENE,6.9,-,N/A,,Overcast,70,2012-11-25 07:55:00
2:15 AM,69.8,59.0,68,30.11,9.0,NE,8.1,-,N/A,,Overcast,50,2012-11-25 08:15:00
2:35 AM,69.8,59.0,68,30.10,9.0,NE,8.1,-,N/A,,Overcast,50,2012-11-25 08:35:00
2:55 AM,69.8,59.0,68,30.09,9.0,NE,8.1,-,N/A,,Mostly Cloudy,50,2012-11-25 08:55:00
3:15 AM,69.8,59.0,68,30.09,10.0,ENE,6.9,-,N/A,,Mostly Cloudy,60,2012-11-25 09:15:00
3:35 AM,69.8,59.0,68,30.08,9.0,East,5.8,-,N/A,,Overcast,80,2012-11-25 09:35:00
3:55 AM,69.8,59.0,68,30.08,9.0,ENE,8.1,-,N/A,,Mostly Cloudy,60,2012-11-25 09:55:00
4:15 AM,69.8,60.8,73,30.08,10.0,ENE,8.1,-,N/A,,Mostly Cloudy,60,2012-11-25 10:15:00
4:35 AM,69.8,60.8,73,30.07,10.0,ENE,8.1,-,N/A,,Mostly Cloudy,60,2012-11-25 10:35:00
4:55 AM,69.8,60.8,73,30.07,10.0,ENE,6.9,-,N/A,,Scattered Clouds,70,2012-11-25 10:55:00
5:35 AM,69.8,60.8,73,30.06,9.0,NE,6.9,-,N/A,,Clear,50,2012-11-25 11:35:00
5:55 AM,69.8,60.8,73,30.07,9.0,NE,8.1,-,N/A,,Clear,50,2012-11-25 11:55:00
6:15 AM,69.8,60.8,73,30.08,10.0,East,6.9,-,N/A,,Mostly Cloudy,80,2012-11-25 12:15:00
6:35 AM,69.8,60.8,73,30.08,9.0,ENE,5.8,-,N/A,,Mostly Cloudy,60,2012-11-25 12:35:00
6:55 AM,69.8,60.8,73,30.08,9.0,NE,6.9,-,N/A,,Mostly Cloudy,50,2012-11-25 12:55:00
7:15 AM,69.8,60.8,73,30.08,8.0,East,6.9,-,N/A,,Overcast,80,2012-11-25 13:15:00
7:35 AM,71.6,62.6,73,30.09,8.0,ENE,6.9,-,N/A,,Overcast,70,2012-11-25 13:35:00
7:55 AM,71.6,62.6,73,30.09,8.0,East,5.8,-,N/A,,Overcast,80,2012-11-25 13:55:00
8:15 AM,71.6,62.6,73,30.09,7.0,East,8.1,-,N/A,,Overcast,90,2012-11-25 14:15:00
8:35 AM,71.6,62.6,73,30.09,8.0,East,10.4,-,N/A,,Overcast,80,2012-11-25 14:35:00
8:55 AM,71.6,62.6,73,30.09,7.0,ENE,8.1,-,N/A,,Overcast,70,2012-11-25 14:55:00
9:15 AM,71.6,62.6,73,30.10,8.0,ENE,8.1,-,N/A,,Overcast,70,2012-11-25 15:15:00
9:35 AM,71.6,64.4,78,30.10,7.0,East,8.1,-,N/A,,Overcast,100,2012-11-25 15:35:00
9:55 AM,73.4,64.4,73,30.09,8.0,East,8.1,-,N/A,,Mostly Cloudy,80,2012-11-25 15:55:00
10:15 AM,73.4,64.4,73,30.09,7.0,East,9.2,-,N/A,,Overcast,90,2012-11-25 16:15:00
10:35 AM,73.4,64.4,73,30.09,7.0,East,9.2,-,N/A,,Mostly Cloudy,80,2012-11-25 16:35:00
10:55 AM,73.4,66.2,78,30.08,7.0,East,9.2,-,N/A,,Overcast,80,2012-11-25 16:55:00
11:15 AM,73.4,66.2,78,30.07,6.0,East,9.2,-,N/A,,Haze,90,2012-11-25 17:15:00
11:35 AM,73.4,66.2,78,30.06,6.0,ESE,11.5,-,N/A,,Haze,110,2012-11-25 17:35:00
11:55 AM,73.4,66.2,78,30.06,6.0,ESE,10.4,-,N/A,,Haze,120,2012-11-25 17:55:00
12:15 PM,75.2,66.2,73,30.04,9.0,SE,10.4,-,N/A,,Overcast,130,2012-11-25 18:15:00
12:35 PM,75.2,66.2,73,30.03,6.0,ESE,9.2,-,N/A,,Haze,120,2012-11-25 18:35:00
12:55 PM,75.2,68.0,78,30.02,7.0,ESE,11.5,-,N/A,,Scattered Clouds,120,2012-11-25 18:55:00
1:15 PM,75.2,68.0,78,30.00,5.0,SE,10.4,-,N/A,,Haze,130,2012-11-25 19:15:00
1:35 PM,75.2,66.2,73,30.00,6.0,SE,10.4,-,N/A,,Haze,130,2012-11-25 19:35:00
1:55 PM,75.2,66.2,73,29.99,7.0,SE,10.4,-,N/A,,Clear,140,2012-11-25 19:55:00
2:15 PM,75.2,68.0,78,29.98,7.0,SE,9.2,-,N/A,,Clear,140,2012-11-25 20:15:00
2:35 PM,75.2,68.0,78,29.97,-9999.0,SE,9.2,-,N/A,,Clear,140,2012-11-25 20:35:00
2:55 PM,75.2,68.0,78,29.97,7.0,SE,9.2,-,N/A,,Clear,140,2012-11-25 20:55:00
3:15 PM,75.2,68.0,78,29.96,7.0,SE,8.1,-,N/A,,Clear,140,2012-11-25 21:15:00
3:35 PM,75.2,68.0,78,29.96,8.0,SE,8.1,-,N/A,,Clear,140,2012-11-25 21:35:00
3:55 PM,75.2,68.0,78,29.96,7.0,SE,8.1,-,N/A,,Clear,140,2012-11-25 21:55:00
4:15 PM,75.2,68.0,78,29.95,6.0,SE,6.9,-,N/A,,Haze,140,2012-11-25 22:15:00
4:35 PM,75.2,68.0,78,29.96,8.0,SE,5.8,-,N/A,,Clear,140,2012-11-25 22:35:00
4:55 PM,75.2,69.8,83,29.96,6.0,SE,6.9,-,N/A,,Haze,140,2012-11-25 22:55:00
5:15 PM,73.4,69.8,88,29.95,5.0,SE,5.8,-,N/A,,Haze,140,2012-11-25 23:15:00
5:35 PM,73.4,69.8,88,29.95,5.0,SSE,6.9,-,N/A,,Haze,150,2012-11-25 23:35:00
5:55 PM,73.4,69.8,88,29.95,5.0,SSE,5.8,-,N/A,,Clear,160,2012-11-25 23:55:00
6:15 PM,73.4,69.8,88,29.95,6.0,SSE,5.8,-,N/A,,Clear,160,2012-11-26 00:15:00
6:35 PM,73.4,69.8,88,29.96,7.0,SSE,6.9,-,N/A,,Clear,150,2012-11-26 00:35:00
6:55 PM,73.4,69.8,88,29.96,5.0,SSE,9.2,-,N/A,,Clear,150,2012-11-26 00:55:00
7:15 PM,73.4,69.8,88,29.97,6.0,SSE,12.7,-,N/A,,Clear,160,2012-11-26 01:15:00
7:35 PM,73.4,68.0,83,29.97,7.0,SSE,16.1,-,N/A,,Clear,160,2012-11-26 01:35:00
7:55 PM,73.4,68.0,83,29.98,6.0,SSE,16.1,-,N/A,,Haze,160,2012-11-26 01:55:00
8:15 PM,73.4,68.0,83,29.98,8.0,SSE,17.3,-,N/A,,Clear,160,2012-11-26 02:15:00
8:35 PM,73.4,68.0,83,29.99,7.0,South,17.3,-,N/A,,Clear,170,2012-11-26 02:35:00
8:55 PM,73.4,68.0,83,29.99,7.0,SSE,17.3,-,N/A,,Clear,160,2012-11-26 02:55:00
9:15 PM,73.4,68.0,83,29.99,7.0,SSE,18.4,-,N/A,,Clear,160,2012-11-26 03:15:00
9:35 PM,73.4,68.0,83,30.00,6.0,SSE,17.3,-,N/A,,Haze,160,2012-11-26 03:35:00
9:55 PM,73.4,68.0,83,29.99,7.0,South,16.1,-,N/A,,Clear,170,2012-11-26 03:55:00
10:15 PM,73.4,68.0,83,29.99,6.0,South,18.4,-,N/A,,Haze,170,2012-11-26 04:15:00
10:35 PM,73.4,68.0,83,29.99,7.0,South,16.1,-,N/A,,Clear,170,2012-11-26 04:35:00
10:55 PM,73.4,69.8,88,29.98,6.0,South,16.1,-,N/A,,Haze,170,2012-11-26 04:55:00
11:15 PM,73.4,69.8,88,29.98,7.0,South,18.4,-,N/A,,Clear,170,2012-11-26 05:15:00
11:35 PM,73.4,68.0,83,29.98,7.0,South,19.6,-,N/A,,Clear,170,2012-11-26 05:35:00
11:55 PM,73.4,68.0,83,29.97,7.0,South,19.6,-,N/A,,Clear,170,2012-11-26 05:55:00